Wind_Speed
4 8 7 7 6 6 8 7 8 11 11 17 18 17 20 18 14 12 13 18 17 18 19 22 23 24 25 31 32 33 32 32 32 34 37 40 40 38 34 29 29 32 38 42
8 16 9 7 7 6 6 7 10 12 15 17 18 24 18 12 16 17 18 17 17 18 20 24 26 29 28 32 33 35 37 37 37 39 40 43 43 44 40 37 33 32 31 37
8 18 14 8 6 4 6 5 9 15 21 21 21 13 16 18 17 14 12 14 16 22 25 28 30 33 37 41 44 45 45 46 45 47 49 51 52 50 48 44 39 35 33 34
7 17 15 4 5 6 6 8 12 17 22 18 13 5 13 13 14 15 17 22 26 28 29 31 32 35 35 40 41 44 49 49 51 50 48 48 56 57 53 49 45 40 37 34
14 3 6 4 4 4 6 11 12 18 19 11 3 4 6 8 12 16 19 20 24 30 33 33 34 35 34 38 38 35 33 34 36 40 43 44 45 56 58 54 51 46 42 35
4 1 5 8 6 6 8 9 17 19 9 2 3 5 10 7 8 13 19 25 28 37 36 38 38 37 34 34 31 30 31 32 35 36 37 39 41 45 60 58 54 51 48 42
5 3 12 8 10 7 8 10 5 4 3 4 3 11 6 10 12 18 24 30 37 39 40 40 38 36 35 28 26 28 31 32 36 38 38 38 38 37 41 59 59 55 52 48
12 3 9 13 14 9 5 5 1 4 2 6 15 5 4 13 17 20 25 36 38 41 42 41 36 35 33 27 25 28 32 32 33 38 38 37 40 38 38 35 50 58 54 50
10 9 4 13 5 5 3 4 2 3 4 3 5 7 18 14 16 22 33 36 39 44 43 39 34 35 36 32 30 33 35 35 35 37 40 41 41 42 40 38 39 50 58 54
12 7 10 15 2 6 5 4 3 5 2 4 7 12 10 18 19 31 38 41 44 43 42 38 36 34 35 36 36 35 35 38 40 45 42 42 45 42 37 37 42 47 48 55
14 7 11 11 5 7 1 8 6 6 3 2 3 7 20 13 26 35 40 40 41 44 39 39 38 36 36 35 32 34 38 39 42 40 39 34 41 38 36 34 36 43 48 47
9 10 13 12 10 7 3 5 9 5 2 9 9 16 5 24 31 35 37 41 41 38 38 38 39 37 36 35 36 37 42 40 38 37 34 30 23 31 34 37 33 31 32 38
16 4 7 3 2 11 13 12 11 15 13 13 3 8 25 26 29 36 38 43 41 39 39 39 37 37 38 37 36 40 41 37 33 36 38 30 24 26 31 35 30 27 31 37
9 5 7 6 10 11 15 12 13 14 9 12 16 25 31 28 32 42 40 41 41 36 39 41 39 38 38 40 38 40 34 31 36 38 35 25 24 22 26 24 25 30 34 39
6 6 9 9 7 9 16 15 7 12 13 13 20 28 31 27 34 39 38 40 40 38 41 43 44 41 42 41 37 35 33 35 35 39 34 28 23 20 19 19 29 34 33 33
8 8 9 14 11 12 19 9 7 11 12 19 22 28 25 26 36 34 39 43 42 40 42 45 47 45 44 45 42 38 32 34 38 39 30 16 18 14 17 25 29 28 27 27
18 14 10 8 9 21 12 10 12 12 11 16 23 26 25 32 35 36 41 40 40 40 43 45 48 48 46 43 41 43 37 37 34 27 12 9 14 13 17 21 22 22 23 23
21 16 11 11 14 3 4 14 17 14 16 17 24 22 26 33 34 38 37 40 38 41 44 46 50 50 48 46 47 42 31 33 30 17 4 8 13 12 15 16 18 18 18 18
13 18 11 5 7 17 21 7 7 14 23 19 20 26 27 32 38 39 37 40 40 42 46 47 50 51 50 52 49 35 24 30 25 11 4 9 13 13 11 16 18 21 21 23
8 15 17 10 5 4 3 8 11 16 21 17 25 25 29 35 41 42 38 39 39 41 45 48 51 53 54 53 38 22 23 23 20 5 7 13 10 11 13 17 18 23 22 22
6 10 21 22 12 11 13 16 13 8 16 20 25 25 29 34 35 36 35 37 39 42 46 48 51 53 56 45 23 20 23 17 14 5 8 9 14 13 11 18 18 13 24 26
6 5 8 9 8 9 15 15 12 16 23 27 27 27 30 34 35 33 32 35 40 43 46 48 51 54 53 30 19 21 20 14 14 9 7 18 6 18 17 17 16 21 26 30
11 13 9 10 10 9 15 21 22 24 28 26 23 26 31 32 34 30 31 34 38 42 47 49 52 54 45 22 21 19 17 12 12 12 5 9 11 27 29 28 21 18 41 36
25 25 25 22 22 22 22 29 29 20 21 23 26 29 28 33 33 30 33 34 36 40 46 48 52 49 39 21 19 19 14 7 3 10 8 12 12 28 27 30 40 41 39 33
23 20 21 23 22 22 16 14 12 12 18 22 22 24 27 31 31 33 32 35 36 38 44 46 52 42 35 22 21 17 12 9 7 5 7 7 17 29 31 34 37 30 30 31
28 23 21 19 18 19 15 13 13 13 15 16 21 26 28 32 32 37 33 35 34 37 42 44 49 40 30 24 21 15 17 18 18 19 17 27 28 33 35 34 38 39 36 42
Wind_Direction
347 18 4 342 306 298 292 297 295 319 316 307 310 313 302 308 311 287 291 300 284 274 270 268 270 264 264 268 269 270 269 269 264 270 271 269 270 275 271 265 269 256 247 252
30 12 350 336 328 293 264 283 306 307 310 310 309 304 297 288 289 278 295 288 282 275 273 275 275 275 272 267 264 268 272 273 272 273 271 271 269 270 270 263 257 259 254 247
352 347 342 300 289 286 294 299 308 312 315 310 308 286 280 274 271 283 285 297 313 313 302 291 280 275 271 272 271 270 269 267 266 272 275 274 274 269 266 265 262 263 261 258
347 339 342 326 207 251 277 288 306 313 314 311 302 280 292 256 259 272 285 291 296 311 315 308 292 286 287 281 282 280 272 272 269 270 269 268 268 266 265 261 261 258 257 261
332 330 12 55 24 326 300 301 310 311 301 296 263 279 289 287 262 273 292 315 320 322 321 323 319 310 306 305 296 289 279 272 268 269 270 269 269 262 260 256 257 258 255 253
350 9 339 328 316 312 315 310 312 292 284 247 214 3 292 277 278 288 310 323 327 325 324 323 321 320 311 307 293 286 283 280 279 275 272 276 273 261 253 255 254 253 256 255
71 112 350 334 318 293 317 336 333 342 344 231 298 312 272 302 300 314 318 326 325 327 328 325 322 325 322 305 290 287 288 287 283 280 276 275 274 267 259 251 248 247 251 252
18 350 357 347 353 343 348 4 346 219 270 294 307 237 308 317 307 313 318 324 326 329 326 327 323 324 325 314 301 292 294 292 288 286 283 278 271 268 264 263 249 244 245 249
2 347 359 349 13 1 323 337 351 297 314 309 299 291 313 328 309 316 320 326 330 330 328 328 328 328 326 320 309 303 296 295 296 296 287 280 271 267 258 261 257 245 241 242
352 320 345 343 125 87 69 46 6 2 23 301 290 296 302 329 327 326 333 332 331 333 332 329 330 328 328 322 316 307 300 299 297 296 297 281 266 261 257 253 253 251 245 237
341 325 327 338 175 163 152 40 22 344 253 195 296 279 321 336 332 335 335 334 335 333 331 331 331 327 327 323 315 324 316 301 294 298 304 288 265 253 256 258 262 255 243 230
335 307 305 323 216 199 225 309 336 334 284 252 274 285 322 339 335 335 335 342 338 336 332 333 332 330 328 324 322 316 320 311 303 309 306 297 275 256 260 267 261 250 218 215
319 289 315 334 249 231 257 279 303 317 290 262 238 270 317 321 328 339 335 339 339 333 331 335 336 333 332 331 329 322 319 317 307 302 304 288 265 260 267 263 249 218 206 210
296 279 273 260 293 295 290 296 296 287 262 264 261 305 334 325 330 338 341 339 339 334 334 338 339 335 333 337 328 332 333 329 319 316 306 277 261 255 272 247 216 204 209 208
252 278 278 291 301 288 308 299 300 263 281 264 304 312 330 324 330 338 344 344 342 335 337 342 342 337 337 337 334 337 333 326 322 318 310 273 251 251 261 218 193 199 207 213
275 278 282 290 285 308 307 269 282 291 285 296 305 318 330 329 330 337 339 342 343 337 339 342 342 339 337 335 335 335 330 329 334 327 314 234 226 240 220 203 192 197 205 212
276 271 285 274 282 317 290 247 299 301 301 313 314 329 335 334 338 343 339 341 340 339 340 342 340 340 338 338 336 334 325 327 335 335 336 200 192 223 188 185 183 191 205 215
256 259 250 267 291 264 241 309 306 291 299 313 319 332 333 335 336 338 337 342 342 342 341 341 341 340 339 336 334 328 318 324 334 342 231 185 183 185 181 189 196 204 213 219
241 238 231 237 239 277 295 290 292 295 308 326 326 338 333 336 332 340 343 345 343 342 342 341 342 340 337 338 335 328 326 330 335 323 185 198 181 188 196 195 199 199 192 189
233 223 223 222 245 234 264 267 279 293 314 328 332 335 335 334 339 342 343 342 341 341 340 340 343 341 338 340 338 331 337 340 342 326 115 188 168 178 181 175 189 190 181 187
256 236 230 237 243 266 278 281 285 280 315 312 322 326 327 333 336 334 339 342 345 344 340 341 344 343 342 346 346 341 336 344 6 75 134 176 187 170 169 187 183 176 175 170
233 236 228 229 234 260 265 270 287 289 296 304 312 314 326 331 334 332 334 341 344 345 344 344 346 345 346 353 355 341 333 346 7 4 43 199 164 179 169 167 162 161 178 179
252 250 263 256 257 261 292 294 293 293 295 304 306 317 323 328 336 334 335 341 342 345 344 346 347 348 350 355 357 351 351 349 0 39 96 99 163 172 185 153 135 156 158 151
268 270 274 273 271 275 280 277 281 270 283 294 303 311 317 329 334 333 333 340 343 344 346 348 348 350 353 353 358 4 6 1 4 58 92 56 130 184 161 157 144 138 130 131
271 272 277 280 292 293 292 296 291 277 280 283 293 303 311 323 329 336 334 334 339 343 347 349 349 355 355 352 353 10 36 49 100 160 114 112 119 136 126 131 137 121 121 129
276 284 284 289 290 278 270 274 260 262 270 277 287 295 307 318 323 330 330 330 336 340 346 350 350 356 357 358 4 31 53 76 98 110 96 128 128 139 122 131 133 132 125 121
Height
3122 3123 3123 3122 3122 3123 3123 3123 3123 3122 3121 3118 3116 3114 3114 3112 3111 3110 3110 3109 3108 3107 3105 3104 3102 3101 3100 3098 3097 3095 3095 3095 3095 3094 3093 3093 3093 3094 3094 3096 3098 3099 3101 3103
3124 3122 3122 3121 3120 3120 3121 3121 3121 3120 3119 3117 3114 3110 3108 3108 3107 3107 3106 3105 3104 3103 3102 3100 3097 3095 3093 3091 3089 3088 3086 3085 3084 3083 3083 3082 3082 3083 3085 3086 3087 3090 3092 3092
3123 3122 3119 3118 3119 3119 3119 3119 3119 3117 3115 3113 3109 3106 3105 3105 3104 3103 3102 3101 3100 3097 3095 3092 3089 3087 3084 3082 3080 3079 3077 3075 3074 3072 3070 3069 3069 3070 3072 3076 3079 3081 3084 3085
3122 3120 3117 3115 3116 3117 3117 3117 3116 3115 3112 3109 3108 3105 3101 3101 3102 3101 3100 3098 3096 3092 3089 3085 3081 3078 3075 3072 3069 3066 3064 3063 3062 3060 3058 3056 3055 3056 3060 3063 3068 3071 3074 3076
3122 3119 3118 3116 3116 3116 3117 3115 3114 3112 3108 3107 3106 3105 3100 3099 3100 3099 3098 3095 3092 3088 3082 3078 3073 3069 3066 3061 3058 3055 3053 3050 3049 3048 3046 3045 3043 3043 3046 3050 3054 3059 3063 3067
3119 3119 3118 3117 3116 3115 3114 3113 3111 3107 3105 3104 3103 3105 3098 3098 3098 3096 3095 3092 3087 3082 3077 3072 3067 3062 3057 3053 3048 3045 3042 3041 3039 3037 3036 3033 3031 3031 3032 3036 3042 3047 3053 3056
3120 3119 3118 3116 3115 3114 3112 3110 3109 3108 3107 3105 3103 3103 3097 3097 3095 3094 3090 3087 3083 3077 3071 3064 3058 3053 3048 3042 3039 3036 3033 3032 3029 3027 3026 3025 3021 3020 3020 3023 3027 3033 3040 3044
3120 3119 3118 3115 3113 3113 3111 3112 3112 3119 3114 3106 3102 3099 3097 3096 3094 3092 3090 3085 3079 3072 3065 3058 3052 3047 3041 3036 3032 3027 3024 3021 3019 3016 3015 3014 3013 3011 3010 3010 3014 3020 3026 3033
3120 3119 3117 3116 3113 3113 3112 3112 3113 3111 3110 3109 3102 3099 3097 3095 3093 3091 3087 3081 3074 3067 3058 3051 3046 3040 3034 3029 3025 3019 3015 3013 3009 3006 3003 3001 2999 2998 2998 2999 3001 3004 3012 3020
3121 3118 3117 3115 3113 3112 3112 3113 3112 3112 3115 3110 3101 3097 3095 3093 3091 3087 3081 3075 3068 3061 3052 3045 3040 3034 3028 3021 3015 3011 3006 3001 2997 2993 2988 2986 2985 2986 2985 2986 2988 2991 2997 3006
3119 3118 3117 3114 3112 3111 3112 3112 3113 3113 3112 3110 3107 3096 3094 3092 3088 3082 3077 3071 3063 3055 3047 3040 3034 3028 3020 3014 3009 3002 2996 2990 2986 2981 2976 2973 2968 2972 2973 2973 2975 2976 2981 2992
3118 3117 3113 3112 3111 3110 3110 3110 3112 3111 3111 3108 3106 3094 3091 3089 3085 3080 3073 3067 3059 3051 3043 3037 3029 3021 3014 3008 3001 2993 2986 2978 2973 2968 2965 2961 2958 2961 2962 2963 2964 2965 2970 2983
3116 3114 3112 3111 3112 3110 3109 3109 3109 3109 3107 3104 3104 3094 3090 3088 3083 3078 3069 3061 3054 3046 3039 3032 3024 3015 3008 2999 2992 2984 2976 2969 2964 2958 2953 2952 2951 2952 2951 2951 2955 2960 2967 2976
3113 3112 3112 3112 3111 3110 3107 3106 3105 3104 3103 3099 3095 3088 3086 3082 3077 3072 3065 3057 3049 3041 3034 3026 3018 3009 3002 2994 2985 2976 2968 2962 2956 2950 2943 2940 2941 2942 2941 2939 2946 2954 2962 2968
3110 3109 3109 3108 3107 3106 3104 3101 3099 3098 3097 3095 3091 3087 3084 3079 3074 3068 3061 3053 3045 3037 3029 3021 3012 3003 2996 2988 2979 2971 2963 2956 2948 2939 2931 2926 2931 2934 2934 2936 2941 2948 2958 2966
3106 3106 3105 3104 3104 3103 3099 3098 3097 3096 3094 3092 3088 3084 3081 3077 3072 3065 3058 3050 3041 3033 3024 3016 3007 2998 2990 2982 2972 2964 2955 2947 2939 2931 2921 2918 2926 2929 2930 2934 2939 2947 2956 2964
3103 3102 3102 3100 3101 3098 3096 3095 3095 3093 3092 3089 3085 3082 3077 3072 3067 3061 3053 3046 3038 3029 3020 3011 3002 2993 2985 2976 2966 2957 2948 2941 2934 2927 2918 2920 2924 2927 2929 2934 2940 2948 2955 2960
3096 3098 3099 3097 3098 3097 3093 3092 3091 3089 3087 3085 3081 3078 3074 3070 3064 3059 3051 3042 3034 3026 3017 3009 2998 2988 2979 2970 2960 2949 2942 2936 2930 2923 2921 2923 2925 2928 2931 2936 2941 2947 2953 2958
3091 3094 3095 3095 3094 3092 3089 3088 3088 3085 3082 3081 3078 3075 3071 3066 3059 3055 3047 3039 3031 3023 3015 3005 2995 2984 2974 2964 2952 2941 2937 2931 2926 2921 2921 2923 2926 2929 2932 2936 2941 2945 2951 2955
3087 3089 3093 3091 3092 3090 3086 3085 3084 3082 3079 3077 3074 3071 3067 3062 3054 3048 3042 3037 3030 3023 3013 3002 2993 2980 2970 2958 2945 2937 2935 2929 2922 2920 2919 2923 2926 2929 2933 2937 2941 2945 2949 2956
3085 3086 3086 3087 3088 3085 3083 3082 3081 3081 3081 3074 3071 3068 3065 3060 3057 3048 3042 3035 3028 3019 3009 3000 2990 2976 2964 2953 2943 2938 2935 2929 2924 2922 2922 2923 2926 2929 2935 2939 2942 2945 2949 2954
3083 3083 3083 3083 3084 3082 3079 3080 3079 3076 3073 3070 3068 3065 3062 3058 3052 3046 3039 3033 3025 3017 3008 2998 2987 2974 2962 2951 2946 2939 2934 2930 2927 2924 2923 2924 2926 2930 2937 2941 2944 2946 2949 2954
3081 3080 3081 3081 3078 3076 3075 3074 3073 3071 3069 3067 3064 3062 3059 3054 3048 3043 3037 3031 3023 3015 3005 2996 2985 2973 2961 2953 2948 2940 2935 2931 2929 2928 2928 2927 2929 2933 2932 2941 2945 2947 2949 2958
3074 3073 3073 3073 3072 3072 3071 3068 3066 3067 3065 3064 3061 3058 3055 3050 3045 3040 3034 3028 3021 3013 3004 2995 2983 2972 2962 2955 2950 2944 2938 2935 2933 2933 2934 2933 2933 2935 2938 2942 2948 2954 2960 2966
3068 3067 3066 3065 3066 3064 3063 3061 3061 3061 3060 3059 3058 3055 3051 3047 3042 3037 3032 3027 3020 3012 3004 2995 2983 2973 2964 2957 2951 2947 2942 2937 2937 2939 2939 2941 2941 2945 2950 2954 2960 2965 2970 2975
3059 3061 3061 3059 3060 3058 3058 3057 3057 3056 3055 3054 3052 3050 3048 3043 3038 3034 3029 3025 3018 3011 3004 2996 2985 2975 2967 2960 2954 2950 2946 2942 2942 2945 2944 2948 2951 2955 2960 2964 2968 2970 2975 2982